N72ME KROC-KBDR

Flight info

Callsign N72ME
Flight time N/A
Altitude 11500
Route ITH DNY IGN CMK
Aircraft C404/L-VGD/C

Departure

Time 2026-05-07 23:18
Airport Frederick Douglass Greater Rochester International Airport (KROC)

Arrival

Time N/A
Airport Igor I Sikorsky Memorial Airport (KBDR)
Time Latitude Longitude Altitude Speed Heading
2026-05-07 23:13 43.12800 -77.67360 554 ft 0 kts 302°
2026-05-07 23:15 43.12801 -77.67364 564 ft 1 kts 241°
2026-05-07 23:15 43.12780 -77.67344 560 ft 8 kts 128°
2026-05-07 23:15 43.12721 -77.67373 554 ft 16 kts 215°
2026-05-07 23:16 43.12653 -77.67414 554 ft 7 kts 161°
2026-05-07 23:16 43.12620 -77.67368 554 ft 7 kts 141°
2026-05-07 23:16 43.12602 -77.67329 557 ft 6 kts 113°
2026-05-07 23:16 43.12567 -77.67251 556 ft 16 kts 124°
2026-05-07 23:17 43.12499 -77.67253 553 ft 29 kts 210°
2026-05-07 23:17 43.12140 -77.67555 557 ft 92 kts 212°
2026-05-07 23:17 43.11496 -77.68082 768 ft 115 kts 213°
2026-05-07 23:17 43.10761 -77.68716 1092 ft 138 kts 212°
2026-05-07 23:18 43.09870 -77.69383 1567 ft 149 kts 210°
2026-05-07 23:18 43.08940 -77.70034 2127 ft 152 kts 204°
2026-05-07 23:18 43.07910 -77.69840 2663 ft 160 kts 143°
2026-05-07 23:18 43.07365 -77.68538 3240 ft 159 kts 108°
2026-05-07 23:19 43.07002 -77.67113 3832 ft 157 kts 109°
2026-05-07 23:19 43.06662 -77.65748 4343 ft 147 kts 109°
2026-05-07 23:19 43.06349 -77.64437 4774 ft 143 kts 108°
2026-05-07 23:19 43.06050 -77.63154 5148 ft 143 kts 108°
2026-05-07 23:20 43.05756 -77.61846 5517 ft 144 kts 108°
2026-05-07 23:20 43.05466 -77.60526 5893 ft 146 kts 108°
2026-05-07 23:20 43.05183 -77.59185 6271 ft 148 kts 109°
2026-05-07 23:20 43.04916 -77.57815 6603 ft 150 kts 108°
2026-05-07 23:21 43.04653 -77.56421 6947 ft 152 kts 108°
2026-05-07 23:21 43.04394 -77.55016 7307 ft 153 kts 108°
2026-05-07 23:21 43.04140 -77.53595 7665 ft 154 kts 108°
2026-05-07 23:21 43.03889 -77.52161 8031 ft 156 kts 108°
2026-05-07 23:22 43.03643 -77.50716 8398 ft 157 kts 108°
2026-05-07 23:22 43.03397 -77.49253 8763 ft 158 kts 108°
2026-05-07 23:22 43.03153 -77.47780 9129 ft 160 kts 108°
2026-05-07 23:22 43.02843 -77.46340 9492 ft 154 kts 133°
2026-05-07 23:23 43.02061 -77.45558 9848 ft 134 kts 170°
2026-05-07 23:23 43.01204 -77.45123 10202 ft 133 kts 170°
2026-05-07 23:23 43.00417 -77.44355 10500 ft 149 kts 142°
2026-05-07 23:23 42.99802 -77.43213 10820 ft 151 kts 137°
2026-05-07 23:24 42.99184 -77.42022 11153 ft 152 kts 136°
2026-05-07 23:24 42.98589 -77.40853 11464 ft 152 kts 135°
2026-05-07 23:24 42.97981 -77.39659 11804 ft 154 kts 136°
2026-05-07 23:24 42.97774 -77.39253 11927 ft 154 kts 136°
2026-05-07 23:25 42.97662 -77.39034 11980 ft 154 kts 135°
2026-05-07 23:25 42.97176 -77.38074 12243 ft 154 kts 136°
2026-05-07 23:25 42.96560 -77.36867 12546 ft 156 kts 136°
2026-05-07 23:25 42.95931 -77.35637 12834 ft 159 kts 136°
2026-05-07 23:26 42.95296 -77.34393 13136 ft 160 kts 135°
2026-05-07 23:26 42.94612 -77.33082 13146 ft 181 kts 135°
2026-05-07 23:26 42.93849 -77.31614 13136 ft 196 kts 134°
2026-05-07 23:26 42.93055 -77.30051 13141 ft 204 kts 133°
2026-05-07 23:27 42.91421 -77.26840 13050 ft 211 kts 134°
2026-05-07 23:27 42.90562 -77.25170 12860 ft 219 kts 133°
2026-05-07 23:27 42.89683 -77.23449 12697 ft 223 kts 133°
2026-05-07 23:28 42.88789 -77.21704 12523 ft 227 kts 133°
2026-05-07 23:28 42.87880 -77.19926 12328 ft 231 kts 132°
2026-05-07 23:28 42.86949 -77.18110 12099 ft 236 kts 132°
2026-05-07 23:28 42.86000 -77.16261 11883 ft 239 kts 132°
2026-05-07 23:29 42.85038 -77.14388 11666 ft 243 kts 133°
2026-05-07 23:29 42.84066 -77.12494 11477 ft 245 kts 132°
2026-05-07 23:29 42.83107 -77.10622 11487 ft 237 kts 133°
2026-05-07 23:29 42.82173 -77.08800 11481 ft 232 kts 133°
2026-05-07 23:30 42.81251 -77.07010 11482 ft 229 kts 133°
2026-05-07 23:30 42.80343 -77.05248 11481 ft 226 kts 133°
2026-05-07 23:30 42.79454 -77.03524 11480 ft 224 kts 133°
2026-05-07 23:30 42.78560 -77.01788 11478 ft 223 kts 133°
2026-05-07 23:31 42.77669 -77.00062 11480 ft 223 kts 133°
2026-05-07 23:31 42.76778 -76.98337 11478 ft 223 kts 133°
2026-05-07 23:31 42.75886 -76.96609 11477 ft 223 kts 133°
2026-05-07 23:31 42.74996 -76.94888 11477 ft 223 kts 133°
2026-05-07 23:32 42.74106 -76.93164 11477 ft 223 kts 133°
2026-05-07 23:32 42.73216 -76.91445 11480 ft 222 kts 133°
2026-05-07 23:32 42.72328 -76.89729 11489 ft 222 kts 133°
2026-05-07 23:32 42.71439 -76.88013 11506 ft 222 kts 133°
2026-05-07 23:33 42.70551 -76.86301 11513 ft 222 kts 133°
2026-05-07 23:33 42.69660 -76.84582 11514 ft 223 kts 133°
2026-05-07 23:33 42.68764 -76.82857 11514 ft 223 kts 133°
2026-05-07 23:33 42.67870 -76.81135 11509 ft 223 kts 133°
2026-05-07 23:34 42.66983 -76.79426 11508 ft 223 kts 133°
2026-05-07 23:34 42.66087 -76.77702 11499 ft 222 kts 132°
2026-05-07 23:34 42.65200 -76.75994 11498 ft 220 kts 132°
2026-05-07 23:34 42.64317 -76.74295 11497 ft 219 kts 132°
2026-05-07 23:35 42.63438 -76.72608 11505 ft 219 kts 132°
2026-05-07 23:35 42.62562 -76.70926 11496 ft 218 kts 133°
2026-05-07 23:35 42.61686 -76.69247 11495 ft 217 kts 133°
2026-05-07 23:35 42.60804 -76.67558 11385 ft 222 kts 132°
2026-05-07 23:36 42.59904 -76.65837 11283 ft 225 kts 132°
2026-05-07 23:36 42.58995 -76.64095 11188 ft 227 kts 132°
2026-05-07 23:36 42.58079 -76.62340 11100 ft 227 kts 132°
2026-05-07 23:36 42.57177 -76.60612 11005 ft 228 kts 132°
2026-05-07 23:37 42.56245 -76.58832 10898 ft 229 kts 132°
2026-05-07 23:37 42.55322 -76.57069 10802 ft 229 kts 132°
2026-05-07 23:37 42.54398 -76.55306 10712 ft 230 kts 132°
2026-05-07 23:37 42.53486 -76.53563 10622 ft 230 kts 132°
2026-05-07 23:38 42.52560 -76.51796 10539 ft 229 kts 132°
2026-05-07 23:38 42.51635 -76.50034 10438 ft 230 kts 132°
2026-05-07 23:38 42.50708 -76.48268 10349 ft 230 kts 132°
2026-05-07 23:38 42.49783 -76.46496 10222 ft 231 kts 130°
2026-05-07 23:39 42.49174 -76.44449 10090 ft 238 kts 108°
2026-05-07 23:39 42.48756 -76.42280 9974 ft 237 kts 109°
2026-05-07 23:39 42.48317 -76.40127 9868 ft 237 kts 109°
2026-05-07 23:39 42.47876 -76.37980 9749 ft 236 kts 109°
2026-05-07 23:40 42.47437 -76.35836 9625 ft 236 kts 109°
2026-05-07 23:40 42.47000 -76.33694 9506 ft 236 kts 109°
2026-05-07 23:40 42.46569 -76.31576 9486 ft 230 kts 109°
2026-05-07 23:40 42.46140 -76.29491 9384 ft 230 kts 109°
2026-05-07 23:41 42.45711 -76.27396 9244 ft 231 kts 109°
2026-05-07 23:41 42.45282 -76.25304 9139 ft 231 kts 109°
2026-05-07 23:41 42.44853 -76.23211 9068 ft 230 kts 109°
2026-05-07 23:41 42.44428 -76.21149 8975 ft 230 kts 109°
2026-05-07 23:42 42.43994 -76.19039 8846 ft 230 kts 109°
2026-05-07 23:42 42.43568 -76.16980 8731 ft 230 kts 109°
2026-05-07 23:42 42.43138 -76.14890 8611 ft 230 kts 109°
2026-05-07 23:42 42.42706 -76.12799 8475 ft 230 kts 108°
2026-05-07 23:43 42.42275 -76.10711 8357 ft 230 kts 108°
2026-05-07 23:43 42.41843 -76.08623 8237 ft 230 kts 108°
2026-05-07 23:43 42.41412 -76.06541 8113 ft 229 kts 108°
2026-05-07 23:43 42.40982 -76.04463 7981 ft 229 kts 108°
2026-05-07 23:44 42.40550 -76.02385 7844 ft 229 kts 108°
2026-05-07 23:44 42.40118 -76.00306 7700 ft 229 kts 108°
2026-05-07 23:44 42.39688 -75.98240 7554 ft 228 kts 108°
2026-05-07 23:44 42.39260 -75.96179 7469 ft 224 kts 107°
2026-05-07 23:45 42.38849 -75.94197 7465 ft 220 kts 108°
2026-05-07 23:45 42.38438 -75.92230 7484 ft 216 kts 108°
2026-05-07 23:45 42.38033 -75.90282 7482 ft 214 kts 108°
2026-05-07 23:45 42.37628 -75.88351 7485 ft 212 kts 108°
2026-05-07 23:46 42.37228 -75.86434 7482 ft 211 kts 108°
2026-05-07 23:46 42.36829 -75.84527 7483 ft 210 kts 108°
2026-05-07 23:46 42.36438 -75.82659 7484 ft 208 kts 108°
2026-05-07 23:46 42.36044 -75.80779 7482 ft 207 kts 108°
2026-05-07 23:47 42.35649 -75.78898 7483 ft 208 kts 108°
2026-05-07 23:47 42.35256 -75.77022 7499 ft 206 kts 108°
2026-05-07 23:47 42.34994 -75.75779 7495 ft 207 kts 108°
2026-05-07 23:47 42.34600 -75.73909 7496 ft 207 kts 108°
2026-05-07 23:48 42.34205 -75.72033 7494 ft 207 kts 108°
2026-05-07 23:48 42.33809 -75.70158 7491 ft 208 kts 108°
2026-05-07 23:48 42.33412 -75.68273 7493 ft 208 kts 108°
2026-05-07 23:48 42.33015 -75.66389 7491 ft 208 kts 108°
2026-05-07 23:49 42.32616 -75.64504 7496 ft 209 kts 108°
2026-05-07 23:49 42.32218 -75.62623 7494 ft 208 kts 108°
2026-05-07 23:49 42.31820 -75.60742 7493 ft 207 kts 108°
2026-05-07 23:49 42.31425 -75.58868 7487 ft 207 kts 108°
2026-05-07 23:50 42.31024 -75.56991 7482 ft 207 kts 108°
2026-05-07 23:50 42.30627 -75.55115 7485 ft 208 kts 108°
2026-05-07 23:50 42.30235 -75.53265 7485 ft 207 kts 108°
2026-05-07 23:50 42.29836 -75.51393 7485 ft 208 kts 108°
2026-05-07 23:51 42.29437 -75.49519 7488 ft 207 kts 108°
2026-05-07 23:51 42.29041 -75.47652 7487 ft 206 kts 108°
2026-05-07 23:51 42.28641 -75.45784 7493 ft 208 kts 108°
2026-05-07 23:51 42.28241 -75.43910 7491 ft 208 kts 108°
2026-05-07 23:52 42.27841 -75.42035 7493 ft 208 kts 108°
2026-05-07 23:52 42.27439 -75.40158 7490 ft 208 kts 107°
2026-05-07 23:52 42.27038 -75.38279 7489 ft 208 kts 108°
2026-05-07 23:52 42.26635 -75.36400 7492 ft 209 kts 108°
2026-05-07 23:53 42.26232 -75.34519 7492 ft 208 kts 108°
2026-05-07 23:53 42.25829 -75.32642 7491 ft 208 kts 108°
2026-05-07 23:53 42.25426 -75.30766 7493 ft 208 kts 108°
2026-05-07 23:53 42.25023 -75.28889 7495 ft 209 kts 108°
2026-05-07 23:54 42.24618 -75.27007 7492 ft 209 kts 108°
2026-05-07 23:54 42.24212 -75.25127 7500 ft 209 kts 108°
2026-05-07 23:54 42.23806 -75.23249 7497 ft 208 kts 108°
2026-05-07 23:54 42.23403 -75.21367 7492 ft 209 kts 108°
2026-05-07 23:55 42.22997 -75.19485 7494 ft 209 kts 108°
2026-05-07 23:55 42.22590 -75.17601 7494 ft 209 kts 108°
2026-05-07 23:55 42.22182 -75.15722 7493 ft 208 kts 108°
2026-05-07 23:55 42.21775 -75.13849 7501 ft 208 kts 108°
2026-05-07 23:56 42.21374 -75.11973 7492 ft 206 kts 108°
2026-05-07 23:56 42.20969 -75.10109 7493 ft 207 kts 108°
2026-05-07 23:56 42.20568 -75.08274 7495 ft 206 kts 108°
2026-05-07 23:56 42.20165 -75.06417 7499 ft 207 kts 108°
2026-05-07 23:57 42.19760 -75.04550 7501 ft 206 kts 107°
2026-05-07 23:57 42.19355 -75.02688 7493 ft 206 kts 107°
2026-05-07 23:57 42.18954 -75.00844 7491 ft 205 kts 107°
2026-05-07 23:57 42.18552 -74.98997 7496 ft 206 kts 107°
2026-05-07 23:58 42.18143 -74.97137 7493 ft 207 kts 107°
2026-05-07 23:58 42.17675 -74.95306 7489 ft 206 kts 120°
2026-05-07 23:58 42.16942 -74.93662 7493 ft 204 kts 124°
2026-05-07 23:58 42.16194 -74.92020 7497 ft 206 kts 123°
2026-05-07 23:59 42.15472 -74.90387 7498 ft 205 kts 123°
2026-05-07 23:59 42.14738 -74.88729 7493 ft 205 kts 123°
2026-05-07 23:59 42.14005 -74.87080 7496 ft 205 kts 123°
2026-05-07 23:59 42.13265 -74.85420 7498 ft 206 kts 123°
2026-05-08 00:00 42.12527 -74.83761 7496 ft 207 kts 123°
2026-05-08 00:00 42.11785 -74.82097 7498 ft 207 kts 123°
2026-05-08 00:00 42.11044 -74.80431 7501 ft 208 kts 123°
2026-05-08 00:00 42.10299 -74.78763 7499 ft 207 kts 123°
2026-05-08 00:01 42.09558 -74.77099 7498 ft 208 kts 123°
2026-05-08 00:01 42.08813 -74.75429 7529 ft 207 kts 123°
2026-05-08 00:01 42.08073 -74.73777 7555 ft 206 kts 123°
2026-05-08 00:01 42.07340 -74.72134 7552 ft 208 kts 123°
2026-05-08 00:02 42.06596 -74.70472 7555 ft 207 kts 123°
2026-05-08 00:02 42.05852 -74.68805 7562 ft 208 kts 123°
2026-05-08 00:02 42.05103 -74.67129 7557 ft 209 kts 124°
2026-05-08 00:02 42.04352 -74.65457 7559 ft 209 kts 123°
2026-05-08 00:03 42.03601 -74.63782 7557 ft 209 kts 123°
2026-05-08 00:03 42.02849 -74.62101 7561 ft 210 kts 123°
2026-05-08 00:03 42.02091 -74.60414 7556 ft 210 kts 123°
2026-05-08 00:03 42.01338 -74.58733 7558 ft 210 kts 123°
2026-05-08 00:04 42.00583 -74.57052 7567 ft 210 kts 123°
2026-05-08 00:04 41.99828 -74.55374 7561 ft 209 kts 123°
2026-05-08 00:04 41.99072 -74.53694 7556 ft 209 kts 123°
2026-05-08 00:04 41.98322 -74.52028 7557 ft 208 kts 123°
2026-05-08 00:05 41.97576 -74.50365 7556 ft 208 kts 123°
2026-05-08 00:05 41.96826 -74.48699 7550 ft 208 kts 123°
2026-05-08 00:05 41.96078 -74.47041 7542 ft 206 kts 123°
2026-05-08 00:05 41.95338 -74.45396 7533 ft 207 kts 123°
2026-05-08 00:06 41.94594 -74.43747 7541 ft 206 kts 123°
2026-05-08 00:06 41.93868 -74.42154 7607 ft 198 kts 124°
2026-05-08 00:06 41.93155 -74.40546 7562 ft 201 kts 122°
2026-05-08 00:06 41.92446 -74.38959 7551 ft 197 kts 124°
2026-05-08 00:07 41.91714 -74.37383 7550 ft 200 kts 124°
2026-05-08 00:07 41.90992 -74.35790 7554 ft 200 kts 123°
2026-05-08 00:07 41.90269 -74.34183 7540 ft 201 kts 123°
2026-05-08 00:07 41.89547 -74.32580 7550 ft 201 kts 123°
2026-05-08 00:08 41.88816 -74.30970 7541 ft 202 kts 123°
2026-05-08 00:08 41.88086 -74.29360 7544 ft 202 kts 123°
2026-05-08 00:08 41.87363 -74.27766 7545 ft 203 kts 123°
2026-05-08 00:08 41.86627 -74.26145 7548 ft 203 kts 123°
2026-05-08 00:09 41.85890 -74.24522 7546 ft 204 kts 123°
2026-05-08 00:09 41.85151 -74.22894 7543 ft 205 kts 123°